Time,TemperatureF,DewpointF,PressureIn,WindDirection,WindDirectionDegrees,WindSpeedMPH,WindSpeedGustMPH,Humidity,HourlyPrecipIn,Conditions,Clouds,dailyrainin,SoftwareType,DateUTC
2013-03-16 00:01:00,59.5,33.0,29.87,SW,225,4.1,7.7,37,0.00,,,0.00,WUHU216TE923,2013-03-16 04:01:00,
2013-03-16 00:07:00,59.4,32.9,29.86,WSW,248,3.8,7.6,37,0.00,,,0.00,WUHU216TE923,2013-03-16 04:07:00,
2013-03-16 00:11:00,59.4,32.9,29.86,WSW,248,3.8,3.8,37,0.00,,,0.00,WUHU216TE923,2013-03-16 04:11:00,
2013-03-16 00:21:00,58.8,33.1,29.86,West,270,3.0,4.1,38,0.00,,,0.00,WUHU216TE923,2013-03-16 04:21:00,
2013-03-16 00:31:00,58.1,33.1,29.86,NNW,338,2.7,3.9,39,0.00,,,0.00,WUHU216TE923,2013-03-16 04:31:00,
2013-03-16 00:37:00,58.1,33.1,29.86,WNW,293,3.0,3.6,39,0.00,,,0.00,WUHU216TE923,2013-03-16 04:37:00,
2013-03-16 00:41:00,58.1,33.1,29.86,WNW,293,2.6,3.3,39,0.00,,,0.00,WUHU216TE923,2013-03-16 04:41:00,
2013-03-16 00:47:00,57.9,32.9,29.86,West,270,2.3,3.2,39,0.00,,,0.00,WUHU216TE923,2013-03-16 04:47:00,
2013-03-16 00:51:00,57.6,32.6,29.86,WNW,293,2.4,4.7,39,0.00,,,0.00,WUHU216TE923,2013-03-16 04:51:00,
2013-03-16 00:57:00,57.7,33.4,29.86,NW,315,2.8,4.7,40,0.00,,,0.00,WUHU216TE923,2013-03-16 04:57:00,
2013-03-16 01:01:00,57.7,33.4,29.86,NW,315,3.1,7.4,40,0.00,,,0.00,WUHU216TE923,2013-03-16 05:01:00,
2013-03-16 01:07:00,57.7,32.7,29.85,West,270,2.8,7.4,39,0.00,,,0.00,WUHU216TE923,2013-03-16 05:07:00,
2013-03-16 01:11:00,57.6,33.3,29.85,WNW,293,2.6,3.5,40,0.00,,,0.00,WUHU216TE923,2013-03-16 05:11:00,
2013-03-16 01:17:00,57.7,33.4,29.85,West,270,2.6,2.8,40,0.00,,,0.00,WUHU216TE923,2013-03-16 05:17:00,
2013-03-16 01:21:00,57.7,33.4,29.85,SW,225,2.8,2.8,40,0.00,,,0.00,WUHU216TE923,2013-03-16 05:21:00,
2013-03-16 01:31:00,57.6,33.3,29.85,NW,315,2.9,3.7,40,0.00,,,0.00,WUHU216TE923,2013-03-16 05:31:00,
2013-03-16 01:37:00,57.6,33.3,29.85,WNW,293,2.9,3.0,40,0.00,,,0.00,WUHU216TE923,2013-03-16 05:37:00,
2013-03-16 01:41:00,57.4,33.1,29.85,NW,315,3.0,4.5,40,0.00,,,0.00,WUHU216TE923,2013-03-16 05:41:00,
2013-03-16 01:47:00,57.4,33.1,29.85,SW,225,3.1,4.5,40,0.00,,,0.00,WUHU216TE923,2013-03-16 05:47:00,
2013-03-16 01:51:00,57.2,32.9,29.85,SSW,203,2.9,3.3,40,0.00,,,0.00,WUHU216TE923,2013-03-16 05:51:00,
2013-03-16 01:57:00,57.4,33.1,29.85,NW,315,2.8,3.2,40,0.00,,,0.00,WUHU216TE923,2013-03-16 05:57:00,
2013-03-16 02:01:00,57.2,32.9,29.85,WNW,293,2.9,3.1,40,0.00,,,0.00,WUHU216TE923,2013-03-16 06:01:00,
2013-03-16 02:07:00,57.2,32.9,29.84,West,270,3.3,4.4,40,0.00,,,0.00,WUHU216TE923,2013-03-16 06:07:00,
2013-03-16 02:11:00,57.0,32.7,29.84,NW,315,3.3,7.0,40,0.00,,,0.00,WUHU216TE923,2013-03-16 06:11:00,
2013-03-16 02:17:00,57.2,32.9,29.84,ESE,113,3.1,7.0,40,0.00,,,0.00,WUHU216TE923,2013-03-16 06:17:00,
2013-03-16 02:21:00,57.0,33.4,29.84,West,270,3.5,5.5,41,0.00,,,0.00,WUHU216TE923,2013-03-16 06:21:00,
2013-03-16 02:31:00,57.2,33.6,29.85,NW,315,3.0,3.3,41,0.00,,,0.00,WUHU216TE923,2013-03-16 06:31:00,
2013-03-16 02:41:00,57.0,33.4,29.85,West,270,2.9,5.1,41,0.00,,,0.00,WUHU216TE923,2013-03-16 06:41:00,
2013-03-16 02:47:00,57.2,33.6,29.85,NW,315,2.9,5.1,41,0.00,,,0.00,WUHU216TE923,2013-03-16 06:47:00,
2013-03-16 02:51:00,57.0,33.4,29.85,WNW,293,3.1,3.1,41,0.00,,,0.00,WUHU216TE923,2013-03-16 06:51:00,
2013-03-16 02:57:00,57.0,33.4,29.85,West,270,3.5,3.9,41,0.00,,,0.00,WUHU216TE923,2013-03-16 06:57:00,
2013-03-16 03:01:00,57.2,33.6,29.85,NW,315,3.6,4.7,41,0.00,,,0.00,WUHU216TE923,2013-03-16 07:01:00,
2013-03-16 03:07:00,57.0,34.0,29.84,West,270,3.8,6.1,42,0.00,,,0.00,WUHU216TE923,2013-03-16 07:07:00,
2013-03-16 03:11:00,57.0,34.0,29.84,West,270,3.8,6.1,42,0.00,,,0.00,WUHU216TE923,2013-03-16 07:11:00,
2013-03-16 03:17:00,56.8,33.8,29.84,WSW,248,3.1,6.1,42,0.00,,,0.00,WUHU216TE923,2013-03-16 07:17:00,
2013-03-16 03:21:00,56.5,33.5,29.84,WNW,293,2.9,4.4,42,0.00,,,0.00,WUHU216TE923,2013-03-16 07:21:00,
2013-03-16 03:27:00,56.5,33.5,29.85,NW,315,3.0,6.5,42,0.00,,,0.00,WUHU216TE923,2013-03-16 07:27:00,
2013-03-16 03:31:00,56.5,33.5,29.85,West,270,3.3,6.5,42,0.00,,,0.00,WUHU216TE923,2013-03-16 07:31:00,
2013-03-16 03:41:00,56.1,33.2,29.85,WSW,248,2.7,6.6,42,0.00,,,0.00,WUHU216TE923,2013-03-16 07:41:00,
2013-03-16 03:51:00,56.5,33.5,29.85,NW,315,3.0,4.4,42,0.00,,,0.00,WUHU216TE923,2013-03-16 07:51:00,
2013-03-16 03:57:00,56.1,33.2,29.85,NW,315,2.9,4.4,42,0.00,,,0.00,WUHU216TE923,2013-03-16 07:57:00,
2013-03-16 04:01:00,56.3,33.4,29.85,West,270,3.0,3.8,42,0.00,,,0.00,WUHU216TE923,2013-03-16 08:01:00,
2013-03-16 04:07:00,56.5,33.5,29.84,NNW,338,3.3,6.8,42,0.00,,,0.00,WUHU216TE923,2013-03-16 08:07:00,
2013-03-16 04:11:00,56.5,33.5,29.84,West,270,3.2,6.8,42,0.00,,,0.00,WUHU216TE923,2013-03-16 08:11:00,
2013-03-16 04:17:00,56.3,33.4,29.84,SSW,203,3.8,8.8,42,0.00,,,0.00,WUHU216TE923,2013-03-16 08:17:00,
2013-03-16 04:21:00,56.5,33.5,29.84,WSW,248,3.9,8.8,42,0.00,,,0.00,WUHU216TE923,2013-03-16 08:21:00,
2013-03-16 04:27:00,56.5,33.5,29.83,WSW,248,4.2,8.3,42,0.00,,,0.00,WUHU216TE923,2013-03-16 08:27:00,
2013-03-16 04:31:00,56.5,33.5,29.83,NW,315,3.9,4.2,42,0.00,,,0.00,WUHU216TE923,2013-03-16 08:31:00,
2013-03-16 04:37:00,56.3,33.4,29.83,WSW,248,3.5,9.9,42,0.00,,,0.00,WUHU216TE923,2013-03-16 08:37:00,
2013-03-16 04:41:00,56.3,33.4,29.83,SW,225,3.5,9.9,42,0.00,,,0.00,WUHU216TE923,2013-03-16 08:41:00,
2013-03-16 04:51:00,56.3,33.4,29.83,WNW,293,3.7,3.7,42,0.00,,,0.00,WUHU216TE923,2013-03-16 08:51:00,
2013-03-16 04:57:00,56.3,33.4,29.83,NW,315,3.7,3.7,42,0.00,,,0.00,WUHU216TE923,2013-03-16 08:57:00,
2013-03-16 05:01:00,56.3,33.4,29.83,West,270,3.5,3.9,42,0.00,,,0.00,WUHU216TE923,2013-03-16 09:01:00,
2013-03-16 05:07:00,56.3,33.4,29.83,NW,315,3.5,4.3,42,0.00,,,0.00,WUHU216TE923,2013-03-16 09:07:00,
2013-03-16 05:11:00,56.1,33.2,29.83,West,270,3.7,6.3,42,0.00,,,0.00,WUHU216TE923,2013-03-16 09:11:00,
2013-03-16 05:17:00,55.9,33.6,29.83,West,270,3.6,6.3,43,0.00,,,0.00,WUHU216TE923,2013-03-16 09:17:00,
2013-03-16 05:21:00,55.9,33.6,29.83,SW,225,3.4,5.1,43,0.00,,,0.00,WUHU216TE923,2013-03-16 09:21:00,
2013-03-16 05:27:00,55.8,33.5,29.82,WNW,293,3.2,6.7,43,0.00,,,0.00,WUHU216TE923,2013-03-16 09:27:00,
2013-03-16 05:31:00,55.8,33.5,29.82,West,270,3.6,8.4,43,0.00,,,0.00,WUHU216TE923,2013-03-16 09:31:00,
2013-03-16 05:37:00,55.8,33.5,29.82,NW,315,3.9,8.4,43,0.00,,,0.00,WUHU216TE923,2013-03-16 09:37:00,
2013-03-16 05:41:00,55.6,33.3,29.82,WNW,293,3.6,3.9,43,0.00,,,0.00,WUHU216TE923,2013-03-16 09:41:00,
2013-03-16 05:51:00,55.4,33.1,29.83,WSW,248,3.1,3.5,43,0.00,,,0.00,WUHU216TE923,2013-03-16 09:51:00,
2013-03-16 06:01:00,55.4,33.7,29.83,ENE,68,3.4,6.9,44,0.00,,,0.00,WUHU216TE923,2013-03-16 10:01:00,
2013-03-16 06:08:00,55.2,34.1,29.83,WSW,248,3.3,5.6,45,0.00,,,0.00,WUHU216TE923,2013-03-16 10:08:00,
2013-03-16 06:09:00,55.2,34.1,29.83,WSW,248,3.3,5.6,45,0.00,,,0.00,WUHU216TE923,2013-03-16 10:09:00,
2013-03-16 06:14:00,55.2,34.1,29.83,WSW,248,3.3,3.6,45,0.00,,,0.00,WUHU216TE923,2013-03-16 10:14:00,
2013-03-16 06:19:00,54.9,33.9,29.83,NW,315,3.7,5.2,45,0.00,,,0.00,WUHU216TE923,2013-03-16 10:19:00,
2013-03-16 06:21:00,54.9,33.9,29.83,SW,225,3.7,4.8,45,0.00,,,0.00,WUHU216TE923,2013-03-16 10:21:00,
2013-03-16 06:24:00,54.9,33.9,29.83,SW,225,3.7,5.2,45,0.00,,,0.00,WUHU216TE923,2013-03-16 10:24:00,
2013-03-16 06:29:00,54.9,33.9,29.83,SW,225,3.7,4.8,45,0.00,,,0.00,WUHU216TE923,2013-03-16 10:29:00,
2013-03-16 06:34:00,54.7,34.2,29.84,WSW,248,4.1,4.1,46,0.00,,,0.00,WUHU216TE923,2013-03-16 10:34:00,
2013-03-16 06:39:00,54.3,33.9,29.84,West,270,3.4,4.1,46,0.00,,,0.00,WUHU216TE923,2013-03-16 10:39:00,
2013-03-16 06:44:00,54.3,33.9,29.84,SSW,203,3.0,5.9,46,0.00,,,0.00,WUHU216TE923,2013-03-16 10:44:00,
2013-03-16 06:49:00,54.0,33.6,29.85,SSE,158,3.2,5.9,46,0.00,,,0.00,WUHU216TE923,2013-03-16 10:49:00,
2013-03-16 06:54:00,53.6,33.8,29.85,SSW,203,2.8,4.0,47,0.00,,,0.00,WUHU216TE923,2013-03-16 10:54:00,
2013-03-16 06:59:00,53.6,33.8,29.85,NW,315,2.4,5.0,47,0.00,,,0.00,WUHU216TE923,2013-03-16 10:59:00,
2013-03-16 07:04:00,53.4,34.1,29.85,NNW,338,2.7,5.0,48,0.00,,,0.00,WUHU216TE923,2013-03-16 11:04:00,
2013-03-16 07:09:00,53.4,34.1,29.86,ENE,68,2.3,2.7,48,0.00,,,0.00,WUHU216TE923,2013-03-16 11:09:00,
2013-03-16 07:14:00,53.4,34.1,29.86,SSW,203,2.8,6.7,48,0.00,,,0.00,WUHU216TE923,2013-03-16 11:14:00,
2013-03-16 07:19:00,53.4,34.1,29.86,SW,225,3.5,6.7,48,0.00,,,0.00,WUHU216TE923,2013-03-16 11:19:00,
2013-03-16 07:24:00,53.2,34.0,29.86,SW,225,3.5,4.0,48,0.00,,,0.00,WUHU216TE923,2013-03-16 11:24:00,
2013-03-16 07:29:00,53.1,34.4,29.86,WSW,248,3.6,3.6,49,0.00,,,0.00,WUHU216TE923,2013-03-16 11:29:00,
2013-03-16 07:34:00,53.1,34.4,29.86,South,180,3.1,3.6,49,0.00,,,0.00,WUHU216TE923,2013-03-16 11:34:00,
2013-03-16 07:39:00,52.7,34.0,29.86,South,180,2.5,3.4,49,0.00,,,0.00,WUHU216TE923,2013-03-16 11:39:00,
2013-03-16 07:44:00,52.7,34.0,29.86,NW,315,2.3,3.3,49,0.00,,,0.00,WUHU216TE923,2013-03-16 11:44:00,
2013-03-16 07:49:00,52.7,34.0,29.86,NNE,23,2.7,3.7,49,0.00,,,0.00,WUHU216TE923,2013-03-16 11:49:00,
2013-03-16 07:54:00,52.5,33.8,29.86,West,270,2.5,3.8,49,0.00,,,0.00,WUHU216TE923,2013-03-16 11:54:00,
2013-03-16 07:59:00,52.5,33.8,29.86,WNW,293,2.4,3.8,49,0.00,,,0.00,WUHU216TE923,2013-03-16 11:59:00,
2013-03-16 08:04:00,52.5,33.8,29.86,SW,225,2.4,4.5,49,0.00,,,0.00,WUHU216TE923,2013-03-16 12:04:00,
2013-03-16 08:09:00,52.3,34.2,29.86,WSW,248,2.3,4.5,50,0.00,,,0.00,WUHU216TE923,2013-03-16 12:09:00,
2013-03-16 08:14:00,52.3,34.2,29.86,WSW,248,1.9,4.3,50,0.00,,,0.00,WUHU216TE923,2013-03-16 12:14:00,
2013-03-16 08:19:00,52.5,34.4,29.86,SW,225,2.3,3.5,50,0.00,,,0.00,WUHU216TE923,2013-03-16 12:19:00,
2013-03-16 08:24:00,52.5,34.4,29.86,SW,225,2.4,5.0,50,0.00,,,0.00,WUHU216TE923,2013-03-16 12:24:00,
2013-03-16 08:29:00,53.2,34.5,29.85,West,270,3.1,5.0,49,0.00,,,0.00,WUHU216TE923,2013-03-16 12:29:00,
2013-03-16 08:34:00,53.4,34.7,29.85,SSW,203,3.8,4.3,49,0.00,,,0.00,WUHU216TE923,2013-03-16 12:34:00,
2013-03-16 08:39:00,54.0,34.7,29.85,West,270,4.1,4.3,48,0.00,,,0.00,WUHU216TE923,2013-03-16 12:39:00,
2013-03-16 08:44:00,54.1,34.8,29.85,WNW,293,4.1,4.1,48,0.00,,,0.00,WUHU216TE923,2013-03-16 12:44:00,
2013-03-16 08:49:00,54.9,35.0,29.86,SE,135,3.2,5.8,47,0.00,,,0.00,WUHU216TE923,2013-03-16 12:49:00,
2013-03-16 08:54:00,55.2,35.3,29.86,WSW,248,3.3,5.8,47,0.00,,,0.00,WUHU216TE923,2013-03-16 12:54:00,
2013-03-16 08:59:00,55.6,34.5,29.86,West,270,3.7,3.7,45,0.00,,,0.00,WUHU216TE923,2013-03-16 12:59:00,
2013-03-16 09:04:00,55.9,34.8,29.86,SSE,158,3.7,4.7,45,0.00,,,0.00,WUHU216TE923,2013-03-16 13:04:00,
2013-03-16 09:09:00,56.1,34.4,29.86,South,180,3.8,5.5,44,0.00,,,0.00,WUHU216TE923,2013-03-16 13:09:00,
2013-03-16 09:14:00,56.5,34.7,29.86,WSW,248,4.2,5.5,44,0.00,,,0.00,WUHU216TE923,2013-03-16 13:14:00,
2013-03-16 09:19:00,56.7,34.3,29.86,NW,315,4.8,5.5,43,0.00,,,0.00,WUHU216TE923,2013-03-16 13:19:00,
2013-03-16 09:24:00,56.8,34.4,29.86,WNW,293,4.4,4.8,43,0.00,,,0.00,WUHU216TE923,2013-03-16 13:24:00,
2013-03-16 09:29:00,57.6,35.1,29.86,WSW,248,4.0,4.4,43,0.00,,,0.00,WUHU216TE923,2013-03-16 13:29:00,
2013-03-16 09:34:00,57.7,34.6,29.86,SW,225,3.9,5.7,42,0.00,,,0.00,WUHU216TE923,2013-03-16 13:34:00,
2013-03-16 09:39:00,57.7,34.6,29.86,SSW,203,4.0,5.7,42,0.00,,,0.00,WUHU216TE923,2013-03-16 13:39:00,
2013-03-16 09:44:00,57.7,34.6,29.86,WNW,293,4.4,6.5,42,0.00,,,0.00,WUHU216TE923,2013-03-16 13:44:00,
2013-03-16 09:49:00,58.5,35.3,29.86,SW,225,4.1,6.5,42,0.00,,,0.00,WUHU216TE923,2013-03-16 13:49:00,
2013-03-16 09:54:00,58.5,35.3,29.86,SW,225,3.9,7.2,42,0.00,,,0.00,WUHU216TE923,2013-03-16 13:54:00,
2013-03-16 09:59:00,59.0,35.2,29.86,SW,225,4.0,7.2,41,0.00,,,0.00,WUHU216TE923,2013-03-16 13:59:00,
2013-03-16 10:04:00,59.4,35.5,29.86,SW,225,3.7,5.4,41,0.00,,,0.00,WUHU216TE923,2013-03-16 14:04:00,
2013-03-16 10:09:00,59.9,35.4,29.85,WSW,248,3.7,5.4,40,0.00,,,0.00,WUHU216TE923,2013-03-16 14:09:00,
2013-03-16 10:14:00,60.4,35.8,29.85,West,270,3.9,3.9,40,0.00,,,0.00,WUHU216TE923,2013-03-16 14:14:00,
2013-03-16 10:19:00,60.8,35.5,29.85,SSW,203,3.4,4.9,39,0.00,,,0.00,WUHU216TE923,2013-03-16 14:19:00,
2013-03-16 10:24:00,60.8,34.8,29.85,NW,315,3.3,5.2,38,0.00,,,0.00,WUHU216TE923,2013-03-16 14:24:00,
2013-03-16 10:29:00,61.2,35.2,29.85,WSW,248,3.5,7.6,38,0.00,,,0.00,WUHU216TE923,2013-03-16 14:29:00,
2013-03-16 10:34:00,61.5,35.5,29.85,WSW,248,3.2,7.6,38,0.00,,,0.00,WUHU216TE923,2013-03-16 14:34:00,
2013-03-16 10:39:00,61.5,35.5,29.85,NW,315,4.1,5.9,38,0.00,,,0.00,WUHU216TE923,2013-03-16 14:39:00,
2013-03-16 10:44:00,61.7,35.6,29.85,WSW,248,4.4,5.9,38,0.00,,,0.00,WUHU216TE923,2013-03-16 14:44:00,
2013-03-16 10:49:00,61.3,35.3,29.85,SW,225,5.0,5.4,38,0.00,,,0.00,WUHU216TE923,2013-03-16 14:49:00,
2013-03-16 10:54:00,61.3,35.3,29.85,SW,225,5.3,7.4,38,0.00,,,0.00,WUHU216TE923,2013-03-16 14:54:00,
2013-03-16 10:59:00,61.7,35.6,29.85,SW,225,5.2,7.7,38,0.00,,,0.00,WUHU216TE923,2013-03-16 14:59:00,
2013-03-16 11:04:00,62.1,36.0,29.85,WSW,248,5.0,7.7,38,0.00,,,0.00,WUHU216TE923,2013-03-16 15:04:00,
2013-03-16 11:09:00,62.2,36.1,29.85,SW,225,5.2,6.1,38,0.00,,,0.00,WUHU216TE923,2013-03-16 15:09:00,
2013-03-16 11:14:00,63.1,36.2,29.85,NW,315,4.7,7.4,37,0.00,,,0.00,WUHU216TE923,2013-03-16 15:14:00,
2013-03-16 11:19:00,63.0,36.1,29.85,SW,225,4.5,9.9,37,0.00,,,0.00,WUHU216TE923,2013-03-16 15:19:00,
2013-03-16 11:24:00,63.3,35.7,29.85,NW,315,4.9,9.9,36,0.00,,,0.00,WUHU216TE923,2013-03-16 15:24:00,
2013-03-16 11:29:00,64.0,36.3,29.83,SW,225,4.6,6.0,36,0.00,,,0.00,WUHU216TE923,2013-03-16 15:29:00,
2013-03-16 11:34:00,64.0,35.6,29.83,SW,225,4.5,6.0,35,0.00,,,0.00,WUHU216TE923,2013-03-16 15:34:00,
2013-03-16 11:39:00,64.9,36.4,29.83,SW,225,4.6,7.6,35,0.00,,,0.00,WUHU216TE923,2013-03-16 15:39:00,
2013-03-16 11:44:00,64.9,36.4,29.83,West,270,4.0,7.6,35,0.00,,,0.00,WUHU216TE923,2013-03-16 15:44:00,
2013-03-16 11:49:00,65.1,35.8,29.83,SW,225,4.8,5.6,34,0.00,,,0.00,WUHU216TE923,2013-03-16 15:49:00,
2013-03-16 11:54:00,65.7,36.4,29.83,SW,225,4.8,5.6,34,0.00,,,0.00,WUHU216TE923,2013-03-16 15:54:00,
2013-03-16 11:59:00,67.1,37.6,29.83,WNW,293,4.6,4.8,34,0.00,,,0.00,WUHU216TE923,2013-03-16 15:59:00,
2013-03-16 12:04:00,68.4,38.0,29.83,NW,315,3.6,4.6,33,0.00,,,0.00,WUHU216TE923,2013-03-16 16:04:00,
2013-03-16 12:09:00,68.5,38.1,29.82,WSW,248,3.2,6.0,33,0.00,,,0.00,WUHU216TE923,2013-03-16 16:09:00,
2013-03-16 12:14:00,68.5,38.1,29.82,WSW,248,3.2,6.0,33,0.00,,,0.00,WUHU216TE923,2013-03-16 16:14:00,
2013-03-16 12:19:00,68.5,36.5,29.82,SSE,158,4.3,6.0,31,0.00,,,0.00,WUHU216TE923,2013-03-16 16:19:00,
2013-03-16 12:24:00,69.4,38.1,29.82,WSW,248,4.0,5.6,32,0.00,,,0.00,WUHU216TE923,2013-03-16 16:24:00,
2013-03-16 12:29:00,70.9,38.6,29.83,SSE,158,3.5,5.5,31,0.00,,,0.00,WUHU216TE923,2013-03-16 16:29:00,
2013-03-16 12:34:00,70.7,37.6,29.83,South,180,3.8,5.5,30,0.00,,,0.00,WUHU216TE923,2013-03-16 16:34:00,
2013-03-16 12:39:00,71.4,37.3,29.83,SW,225,4.6,7.1,29,0.00,,,0.00,WUHU216TE923,2013-03-16 16:39:00,
2013-03-16 12:44:00,70.7,36.7,29.83,West,270,4.4,7.1,29,0.00,,,0.00,WUHU216TE923,2013-03-16 16:44:00,
2013-03-16 12:49:00,71.1,37.0,29.83,SW,225,4.4,5.1,29,0.00,,,0.00,WUHU216TE923,2013-03-16 16:49:00,
2013-03-16 12:54:00,71.6,37.5,29.83,NW,315,3.9,7.3,29,0.00,,,0.00,WUHU216TE923,2013-03-16 16:54:00,
2013-03-16 12:59:00,71.2,36.3,29.83,WSW,248,4.1,7.3,28,0.00,,,0.00,WUHU216TE923,2013-03-16 16:59:00,
2013-03-16 13:04:00,70.5,34.7,29.83,South,180,4.6,6.2,27,0.00,,,0.00,WUHU216TE923,2013-03-16 17:04:00,
2013-03-16 13:09:00,70.9,36.0,29.82,South,180,4.5,5.7,28,0.00,,,0.00,WUHU216TE923,2013-03-16 17:09:00,
2013-03-16 13:14:00,72.3,37.2,29.82,WSW,248,4.1,4.5,28,0.00,,,0.00,WUHU216TE923,2013-03-16 17:14:00,
2013-03-16 13:19:00,74.1,35.9,29.82,WSW,248,3.4,7.5,25,0.00,,,0.00,WUHU216TE923,2013-03-16 17:19:00,
2013-03-16 13:24:00,73.9,34.7,29.82,WNW,293,3.8,7.5,24,0.00,,,0.00,WUHU216TE923,2013-03-16 17:24:00,
2013-03-16 13:29:00,74.3,35.1,29.80,West,270,4.4,5.2,24,0.00,,,0.00,WUHU216TE923,2013-03-16 17:29:00,
2013-03-16 13:34:00,73.4,33.3,29.80,WSW,248,5.1,9.7,23,0.00,,,0.00,WUHU216TE923,2013-03-16 17:34:00,
2013-03-16 13:39:00,73.9,34.7,29.80,West,270,5.0,9.7,24,0.00,,,0.00,WUHU216TE923,2013-03-16 17:39:00,
2013-03-16 13:44:00,73.2,35.1,29.80,SSE,158,4.6,5.0,25,0.00,,,0.00,WUHU216TE923,2013-03-16 17:44:00,
2013-03-16 13:49:00,73.8,34.6,29.79,NNE,23,4.0,7.6,24,0.00,,,0.00,WUHU216TE923,2013-03-16 17:49:00,
2013-03-16 13:54:00,72.0,35.1,29.79,NW,315,4.2,7.6,26,0.00,,,0.00,WUHU216TE923,2013-03-16 17:54:00,
2013-03-16 13:59:00,71.6,34.8,29.79,SW,225,4.7,8.5,26,0.00,,,0.00,WUHU216TE923,2013-03-16 17:59:00,
2013-03-16 14:04:00,70.7,35.8,29.79,South,180,4.1,8.5,28,0.00,,,0.00,WUHU216TE923,2013-03-16 18:04:00,
2013-03-16 14:09:00,70.0,35.2,29.79,SW,225,4.0,6.0,28,0.00,,,0.00,WUHU216TE923,2013-03-16 18:09:00,
2013-03-16 14:14:00,70.3,36.4,29.79,West,270,4.2,6.0,29,0.00,,,0.00,WUHU216TE923,2013-03-16 18:14:00,
2013-03-16 14:19:00,70.9,37.7,29.79,WSW,248,4.5,4.5,30,0.00,,,0.00,WUHU216TE923,2013-03-16 18:19:00,
2013-03-16 14:24:00,72.0,37.8,29.79,WSW,248,4.2,7.8,29,0.00,,,0.00,WUHU216TE923,2013-03-16 18:24:00,
2013-03-16 14:29:00,74.8,37.5,29.78,SSW,203,3.8,7.8,26,0.00,,,0.00,WUHU216TE923,2013-03-16 18:29:00,
2013-03-16 14:34:00,75.2,36.8,29.78,West,270,3.2,4.3,25,0.00,,,0.00,WUHU216TE923,2013-03-16 18:34:00,
2013-03-16 14:39:00,73.4,35.3,29.78,South,180,3.8,6.5,25,0.00,,,0.00,WUHU216TE923,2013-03-16 18:39:00,
2013-03-16 14:44:00,71.2,37.1,29.78,SW,225,4.1,6.5,29,0.00,,,0.00,WUHU216TE923,2013-03-16 18:44:00,
2013-03-16 14:49:00,70.2,36.3,29.78,SSW,203,4.2,4.4,29,0.00,,,0.00,WUHU216TE923,2013-03-16 18:49:00,
2013-03-16 14:54:00,70.9,37.7,29.78,WSW,248,4.2,6.2,30,0.00,,,0.00,WUHU216TE923,2013-03-16 18:54:00,
2013-03-16 14:59:00,72.1,37.0,29.78,South,180,4.2,8.1,28,0.00,,,0.00,WUHU216TE923,2013-03-16 18:59:00,
2013-03-16 15:04:00,72.3,36.3,29.78,SW,225,4.1,8.6,27,0.00,,,0.00,WUHU216TE923,2013-03-16 19:04:00,
2013-03-16 15:09:00,71.8,37.7,29.77,NW,315,4.6,8.6,29,0.00,,,0.00,WUHU216TE923,2013-03-16 19:09:00,
2013-03-16 15:14:00,72.1,37.9,29.77,NW,315,4.7,6.8,29,0.00,,,0.00,WUHU216TE923,2013-03-16 19:14:00,
2013-03-16 15:19:00,72.0,36.9,29.77,SW,225,4.5,5.9,28,0.00,,,0.00,WUHU216TE923,2013-03-16 19:19:00,
2013-03-16 15:24:00,72.1,37.0,29.77,West,270,4.4,5.9,28,0.00,,,0.00,WUHU216TE923,2013-03-16 19:24:00,
2013-03-16 15:29:00,72.3,38.1,29.77,SW,225,4.3,4.4,29,0.00,,,0.00,WUHU216TE923,2013-03-16 19:29:00,
2013-03-16 15:34:00,72.5,37.4,29.77,WSW,248,4.6,6.6,28,0.00,,,0.00,WUHU216TE923,2013-03-16 19:34:00,
2013-03-16 15:39:00,72.1,36.1,29.77,South,180,4.6,7.7,27,0.00,,,0.00,WUHU216TE923,2013-03-16 19:39:00,
2013-03-16 15:44:00,72.1,37.0,29.77,West,270,4.7,7.7,28,0.00,,,0.00,WUHU216TE923,2013-03-16 19:44:00,
2013-03-16 15:49:00,72.5,35.5,29.76,South,180,4.8,11.1,26,0.00,,,0.00,WUHU216TE923,2013-03-16 19:49:00,
2013-03-16 15:54:00,72.1,36.1,29.76,WSW,248,5.6,11.1,27,0.00,,,0.00,WUHU216TE923,2013-03-16 19:54:00,
2013-03-16 15:59:00,73.2,38.0,29.76,SE,135,4.9,5.7,28,0.00,,,0.00,WUHU216TE923,2013-03-16 19:59:00,
2013-03-16 16:04:00,72.3,35.4,29.76,South,180,4.4,4.9,26,0.00,,,0.00,WUHU216TE923,2013-03-16 20:04:00,
2013-03-16 16:09:00,70.7,34.9,29.77,WSW,248,4.6,10.2,27,0.00,,,0.00,WUHU216TE923,2013-03-16 20:09:00,
2013-03-16 16:14:00,70.9,36.0,29.77,WSW,248,3.9,10.2,28,0.00,,,0.00,WUHU216TE923,2013-03-16 20:14:00,
2013-03-16 16:19:00,70.9,36.9,29.77,NW,315,3.4,3.9,29,0.00,,,0.00,WUHU216TE923,2013-03-16 20:19:00,
2013-03-16 16:24:00,71.2,36.3,29.77,SW,225,2.8,3.4,28,0.00,,,0.00,WUHU216TE923,2013-03-16 20:24:00,
2013-03-16 16:29:00,71.8,34.9,29.76,SW,225,3.8,4.0,26,0.00,,,0.00,WUHU216TE923,2013-03-16 20:29:00,
2013-03-16 16:34:00,72.0,35.1,29.76,SE,135,4.5,6.2,26,0.00,,,0.00,WUHU216TE923,2013-03-16 20:34:00,
2013-03-16 16:39:00,72.1,34.2,29.76,West,270,4.1,6.2,25,0.00,,,0.00,WUHU216TE923,2013-03-16 20:39:00,
2013-03-16 16:44:00,71.8,34.0,29.76,WSW,248,4.3,7.2,25,0.00,,,0.00,WUHU216TE923,2013-03-16 20:44:00,
2013-03-16 16:49:00,71.6,33.8,29.77,SSE,158,4.9,7.2,25,0.00,,,0.00,WUHU216TE923,2013-03-16 20:49:00,
2013-03-16 16:54:00,71.8,34.0,29.77,WSW,248,4.6,5.4,25,0.00,,,0.00,WUHU216TE923,2013-03-16 20:54:00,
2013-03-16 16:59:00,71.4,33.6,29.77,East,90,4.6,5.4,25,0.00,,,0.00,WUHU216TE923,2013-03-16 20:59:00,
2013-03-16 17:04:00,71.6,32.8,29.77,WSW,248,4.9,10.4,24,0.00,,,0.00,WUHU216TE923,2013-03-16 21:04:00,
2013-03-16 17:09:00,71.4,33.6,29.77,WSW,248,4.8,10.4,25,0.00,,,0.00,WUHU216TE923,2013-03-16 21:09:00,
2013-03-16 17:14:00,71.2,33.4,29.77,WSW,248,4.8,6.8,25,0.00,,,0.00,WUHU216TE923,2013-03-16 21:14:00,
2013-03-16 17:19:00,71.2,33.4,29.77,SW,225,3.5,6.8,25,0.00,,,0.00,WUHU216TE923,2013-03-16 21:19:00,
2013-03-16 17:24:00,71.4,33.6,29.77,West,270,3.5,4.7,25,0.00,,,0.00,WUHU216TE923,2013-03-16 21:24:00,
2013-03-16 17:29:00,71.2,32.4,29.77,SW,225,4.2,4.5,24,0.00,,,0.00,WUHU216TE923,2013-03-16 21:29:00,
2013-03-16 17:34:00,71.1,33.4,29.77,WNW,293,4.4,4.4,25,0.00,,,0.00,WUHU216TE923,2013-03-16 21:34:00,
2013-03-16 17:39:00,71.1,32.4,29.77,SW,225,4.4,6.8,24,0.00,,,0.00,WUHU216TE923,2013-03-16 21:39:00,
2013-03-16 17:44:00,71.1,33.4,29.77,NE,45,3.8,6.8,25,0.00,,,0.00,WUHU216TE923,2013-03-16 21:44:00,
2013-03-16 17:49:00,71.2,33.4,29.76,NW,315,3.5,4.3,25,0.00,,,0.00,WUHU216TE923,2013-03-16 21:49:00,
2013-03-16 17:54:00,70.9,32.2,29.76,NW,315,4.0,4.0,24,0.00,,,0.00,WUHU216TE923,2013-03-16 21:54:00,
2013-03-16 17:59:00,70.9,32.2,29.76,South,180,3.8,5.8,24,0.00,,,0.00,WUHU216TE923,2013-03-16 21:59:00,
2013-03-16 18:04:00,70.7,33.0,29.76,NW,315,3.6,5.8,25,0.00,,,0.00,WUHU216TE923,2013-03-16 22:04:00,
2013-03-16 18:09:00,70.5,31.8,29.77,NW,315,3.7,6.1,24,0.00,,,0.00,WUHU216TE923,2013-03-16 22:09:00,
2013-03-16 18:14:00,70.5,31.8,29.77,WSW,248,3.5,6.9,24,0.00,,,0.00,WUHU216TE923,2013-03-16 22:14:00,
2013-03-16 18:19:00,70.2,32.6,29.77,SSW,203,3.3,6.9,25,0.00,,,0.00,WUHU216TE923,2013-03-16 22:19:00,
2013-03-16 18:24:00,70.2,31.6,29.77,South,180,3.2,3.9,24,0.00,,,0.00,WUHU216TE923,2013-03-16 22:24:00,
2013-03-16 18:29:00,69.8,30.2,29.77,WSW,248,4.1,8.7,23,0.00,,,0.00,WUHU216TE923,2013-03-16 22:29:00,
2013-03-16 18:34:00,69.6,32.1,29.77,WSW,248,3.9,8.7,25,0.00,,,0.00,WUHU216TE923,2013-03-16 22:34:00,
2013-03-16 18:39:00,69.3,31.8,29.77,WNW,293,3.4,4.9,25,0.00,,,0.00,WUHU216TE923,2013-03-16 22:39:00,
2013-03-16 18:44:00,69.3,30.8,29.77,West,270,3.3,4.9,24,0.00,,,0.00,WUHU216TE923,2013-03-16 22:44:00,
2013-03-16 18:49:00,69.3,31.8,29.76,ENE,68,3.5,3.6,25,0.00,,,0.00,WUHU216TE923,2013-03-16 22:49:00,
2013-03-16 18:54:00,69.3,30.8,29.76,SW,225,4.2,4.7,24,0.00,,,0.00,WUHU216TE923,2013-03-16 22:54:00,
2013-03-16 18:59:00,68.9,31.5,29.76,WSW,248,3.8,6.1,25,0.00,,,0.00,WUHU216TE923,2013-03-16 22:59:00,
2013-03-16 19:04:00,68.7,30.3,29.76,West,270,3.8,6.1,24,0.00,,,0.00,WUHU216TE923,2013-03-16 23:04:00,
2013-03-16 19:09:00,68.4,30.1,29.76,WNW,293,4.4,4.4,24,0.00,,,0.00,WUHU216TE923,2013-03-16 23:09:00,
2013-03-16 19:14:00,68.2,29.9,29.76,West,270,4.1,4.4,24,0.00,,,0.00,WUHU216TE923,2013-03-16 23:14:00,
2013-03-16 19:19:00,67.8,30.6,29.76,NNW,338,3.9,6.6,25,0.00,,,0.00,WUHU216TE923,2013-03-16 23:19:00,
2013-03-16 19:24:00,67.6,30.4,29.76,West,270,3.8,6.6,25,0.00,,,0.00,WUHU216TE923,2013-03-16 23:24:00,
2013-03-16 19:29:00,67.5,30.3,29.77,NW,315,3.8,5.2,25,0.00,,,0.00,WUHU216TE923,2013-03-16 23:29:00,
2013-03-16 19:34:00,67.1,30.0,29.77,NW,315,3.1,3.8,25,0.00,,,0.00,WUHU216TE923,2013-03-16 23:34:00,
2013-03-16 19:39:00,66.6,29.5,29.77,West,270,2.7,3.8,25,0.00,,,0.00,WUHU216TE923,2013-03-16 23:39:00,
2013-03-16 19:44:00,66.6,29.5,29.77,WNW,293,2.6,4.1,25,0.00,,,0.00,WUHU216TE923,2013-03-16 23:44:00,
2013-03-16 19:49:00,66.0,30.0,29.79,WNW,293,2.2,4.5,26,0.00,,,0.00,WUHU216TE923,2013-03-16 23:49:00,
2013-03-16 19:54:00,66.2,30.1,29.79,WSW,248,2.5,4.5,26,0.00,,,0.00,WUHU216TE923,2013-03-16 23:54:00,
2013-03-16 19:59:00,66.2,30.1,29.79,West,270,2.2,2.5,26,0.00,,,0.00,WUHU216TE923,2013-03-16 23:59:00,
2013-03-16 20:04:00,65.7,29.7,29.79,WSW,248,1.9,2.8,26,0.00,,,0.00,WUHU216TE923,2013-03-17 00:04:00,
2013-03-16 20:09:00,65.5,30.5,29.80,WNW,293,1.8,2.8,27,0.00,,,0.00,WUHU216TE923,2013-03-17 00:09:00,
2013-03-16 20:14:00,65.3,30.3,29.80,NW,315,2.1,2.6,27,0.00,,,0.00,WUHU216TE923,2013-03-17 00:14:00,
2013-03-16 20:19:00,64.9,29.9,29.80,NNE,23,2.1,2.3,27,0.00,,,0.00,WUHU216TE923,2013-03-17 00:19:00,
2013-03-16 20:24:00,64.6,30.6,29.80,WSW,248,1.8,2.3,28,0.00,,,0.00,WUHU216TE923,2013-03-17 00:24:00,
2013-03-16 20:29:00,64.2,31.1,29.82,WSW,248,1.7,2.4,29,0.00,,,0.00,WUHU216TE923,2013-03-17 00:29:00,
2013-03-16 20:34:00,64.2,31.1,29.82,SW,225,1.4,2.7,29,0.00,,,0.00,WUHU216TE923,2013-03-17 00:34:00,
2013-03-16 20:39:00,63.9,31.6,29.82,West,270,1.4,2.7,30,0.00,,,0.00,WUHU216TE923,2013-03-17 00:39:00,
2013-03-16 20:44:00,63.7,31.5,29.82,SW,225,1.1,1.8,30,0.00,,,0.00,WUHU216TE923,2013-03-17 00:44:00,
2013-03-16 20:49:00,63.7,31.5,29.82,NW,315,1.4,3.1,30,0.00,,,0.00,WUHU216TE923,2013-03-17 00:49:00,
2013-03-16 20:54:00,63.9,31.6,29.82,SW,225,1.8,3.1,30,0.00,,,0.00,WUHU216TE923,2013-03-17 00:54:00,
2013-03-16 20:59:00,63.5,31.3,29.82,West,270,1.8,2.1,30,0.00,,,0.00,WUHU216TE923,2013-03-17 00:59:00,
2013-03-16 21:04:00,63.3,31.1,29.82,West,270,1.4,3.5,30,0.00,,,0.00,WUHU216TE923,2013-03-17 01:04:00,
2013-03-16 21:09:00,63.1,31.8,29.82,WSW,248,1.2,3.5,31,0.00,,,0.00,WUHU216TE923,2013-03-17 01:09:00,
2013-03-16 21:14:00,62.8,31.5,29.82,West,270,1.4,2.0,31,0.00,,,0.00,WUHU216TE923,2013-03-17 01:14:00,
2013-03-16 21:19:00,62.6,31.3,29.82,West,270,1.3,2.0,31,0.00,,,0.00,WUHU216TE923,2013-03-17 01:19:00,
2013-03-16 21:24:00,62.6,31.3,29.82,West,270,1.0,1.3,31,0.00,,,0.00,WUHU216TE923,2013-03-17 01:24:00,
2013-03-16 21:29:00,62.4,31.9,29.82,WSW,248,0.5,1.0,32,0.00,,,0.00,WUHU216TE923,2013-03-17 01:29:00,
2013-03-16 21:34:00,62.2,31.8,29.82,West,270,0.2,0.5,32,0.00,,,0.00,WUHU216TE923,2013-03-17 01:34:00,
2013-03-16 21:39:00,61.7,31.3,29.82,South,180,0.0,0.2,32,0.00,,,0.00,WUHU216TE923,2013-03-17 01:39:00,
2013-03-16 21:44:00,61.3,31.0,29.82,South,180,0.0,0.0,32,0.00,,,0.00,WUHU216TE923,2013-03-17 01:44:00,
2013-03-16 21:49:00,60.8,31.3,29.84,South,180,0.0,0.0,33,0.00,,,0.00,WUHU216TE923,2013-03-17 01:49:00,
2013-03-16 21:54:00,60.3,30.1,29.84,South,180,0.0,0.0,32,0.00,,,0.00,WUHU216TE923,2013-03-17 01:54:00,
2013-03-16 21:59:00,59.7,30.3,29.84,South,180,0.0,0.0,33,0.00,,,0.00,WUHU216TE923,2013-03-17 01:59:00,
2013-03-16 22:04:00,59.2,30.6,29.84,South,180,0.0,0.0,34,0.00,,,0.00,WUHU216TE923,2013-03-17 02:04:00,
2013-03-16 22:09:00,58.6,31.5,29.84,South,180,0.0,0.0,36,0.00,,,0.00,WUHU216TE923,2013-03-17 02:09:00,
2013-03-16 22:14:00,58.3,31.9,29.84,South,180,0.0,0.0,37,0.00,,,0.00,WUHU216TE923,2013-03-17 02:14:00,
2013-03-16 22:19:00,57.7,32.7,29.84,South,180,0.0,0.0,39,0.00,,,0.00,WUHU216TE923,2013-03-17 02:19:00,
2013-03-16 22:24:00,57.4,32.5,29.84,West,270,0.0,0.0,39,0.00,,,0.00,WUHU216TE923,2013-03-17 02:24:00,
2013-03-16 22:29:00,56.8,32.6,29.85,West,270,0.0,0.0,40,0.00,,,0.00,WUHU216TE923,2013-03-17 02:29:00,
2013-03-16 22:35:00,56.7,33.1,29.85,West,270,0.0,0.0,41,0.00,,,0.00,WUHU216TE923,2013-03-17 02:35:00,
2013-03-16 22:39:00,56.3,33.4,29.85,West,270,0.0,0.0,42,0.00,,,0.00,WUHU216TE923,2013-03-17 02:39:00,
2013-03-16 22:45:00,56.1,33.2,29.85,West,270,0.0,0.0,42,0.00,,,0.00,WUHU216TE923,2013-03-17 02:45:00,
2013-03-16 22:50:00,55.8,33.5,29.85,West,270,0.0,0.0,43,0.00,,,0.00,WUHU216TE923,2013-03-17 02:50:00,
2013-03-16 22:54:00,55.8,33.5,29.85,WSW,248,0.0,0.0,43,0.00,,,0.00,WUHU216TE923,2013-03-17 02:54:00,
2013-03-16 23:00:00,55.9,33.6,29.85,WSW,248,0.0,0.0,43,0.00,,,0.00,WUHU216TE923,2013-03-17 03:00:00,
2013-03-16 23:04:00,55.9,33.6,29.85,WSW,248,0.0,0.0,43,0.00,,,0.00,WUHU216TE923,2013-03-17 03:04:00,
2013-03-16 23:09:00,55.6,33.3,29.86,WSW,248,0.0,0.0,43,0.00,,,0.00,WUHU216TE923,2013-03-17 03:09:00,
2013-03-16 23:15:00,55.4,33.7,29.86,WSW,248,0.0,0.0,44,0.00,,,0.00,WUHU216TE923,2013-03-17 03:15:00,
2013-03-16 23:20:00,55.2,34.1,29.86,WSW,248,0.0,0.0,45,0.00,,,0.00,WUHU216TE923,2013-03-17 03:20:00,
2013-03-16 23:25:00,54.9,34.4,29.86,WSW,248,0.0,0.0,46,0.00,,,0.00,WUHU216TE923,2013-03-17 03:25:00,
2013-03-16 23:30:00,54.7,34.2,29.86,SSE,158,0.0,0.0,46,0.00,,,0.00,WUHU216TE923,2013-03-17 03:30:00,
2013-03-16 23:34:00,54.9,34.4,29.86,SSE,158,0.0,0.0,46,0.00,,,0.00,WUHU216TE923,2013-03-17 03:34:00,
2013-03-16 23:40:00,54.9,34.4,29.86,SSE,158,0.0,0.0,46,0.00,,,0.00,WUHU216TE923,2013-03-17 03:40:00,
2013-03-16 23:41:00,54.9,34.4,29.86,SSE,158,0.0,0.0,46,0.00,,,0.00,WUHU216TE923,2013-03-17 03:41:00,
2013-03-16 23:45:00,54.9,34.4,29.86,SSE,158,0.0,0.0,46,0.00,,,0.00,WUHU216TE923,2013-03-17 03:45:00,
2013-03-16 23:50:00,54.9,34.4,29.86,SSE,158,0.0,0.0,46,0.00,,,0.00,WUHU216TE923,2013-03-17 03:50:00,
2013-03-16 23:55:00,54.7,34.8,29.87,SSE,158,0.0,0.0,47,0.00,,,0.00,WUHU216TE923,2013-03-17 03:55:00,